| time (UTC) | temp F | wind direction | speed MPH | gust MPH | rain 1hr in | rain 24hr in | rain mn in | humidity % | barometer mb |
| 20260507062025 | 53 | 330 | 3.0 | 8.0 | 0.00 | 0.40 | 0.01 | 83 | 1010.8 |
| 20260507061003 | 53 | 335 | 2.0 | 8.0 | 0.00 | 0.40 | 0.01 | 84 | 1010.7 |
| 20260507060025 | 53 | 328 | 3.0 | 9.0 | 0.00 | 0.40 | 0.01 | 85 | 1010.7 |
| 20260507055004 | 53 | 345 | 1.0 | 8.0 | 0.00 | 0.40 | 0.01 | 84 | 1010.6 |
| 20260507054004 | 53 | 343 | 5.0 | 9.0 | 0.00 | 0.40 | 0.01 | 85 | 1010.5 |
| 20260507053025 | 53 | 341 | 4.0 | 9.0 | 0.00 | 0.40 | 0.01 | 85 | 1010.5 |
| 20260507052004 | 53 | 328 | 3.0 | 8.0 | 0.01 | 0.40 | 0.01 | 85 | 1010.7 |
| 20260507051003 | 53 | 344 | 4.0 | 12.0 | 0.01 | 0.40 | 0.01 | 85 | 1010.5 |
| 20260507050003 | 53 | 335 | 4.0 | 10.0 | 0.01 | 0.40 | 0.01 | 86 | 1010.6 |
| 20260507045004 | 54 | 332 | 4.0 | 9.0 | 0.01 | 0.40 | 0.01 | 85 | 1010.6 |
| 20260507044025 | 54 | 336 | 5.0 | 10.0 | 0.01 | 0.40 | 0.01 | 85 | 1010.5 |
| 20260507043005 | 54 | 343 | 4.0 | 10.0 | 0.01 | 0.40 | 0.01 | 84 | 1010.5 |
| 20260507042024 | 55 | 356 | 3.0 | 9.0 | 0.00 | 0.39 | 0.00 | 84 | 1010.5 |
| 20260507041004 | 55 | 339 | 6.0 | 10.0 | 0.00 | 0.39 | 0.00 | 83 | 1010.6 |
| 20260507040004 | 55 | 344 | 3.0 | 11.0 | 0.00 | 0.39 | 0.00 | 82 | 1010.4 |
| 20260507035004 | 55 | 356 | 2.0 | 5.0 | 0.00 | 0.39 | 0.39 | 82 | 1010.5 |
| 20260507034004 | 55 | 4 | 0.0 | 3.0 | 0.00 | 0.39 | 0.39 | 83 | 1010.3 |
| 20260507033004 | 56 | 21 | 2.0 | 9.0 | 0.00 | 0.39 | 0.39 | 83 | 1009.9 |
| 20260507032005 | 56 | 356 | 4.0 | 11.0 | 0.00 | 0.39 | 0.39 | 83 | 1010.0 |
| 20260507031004 | 56 | 343 | 5.0 | 10.0 | 0.00 | 0.39 | 0.39 | 84 | 1010.1 |
| 20260507030004 | 56 | 344 | 5.0 | 11.0 | 0.00 | 0.39 | 0.39 | 83 | 1010.2 |
| 20260507025004 | 57 | 346 | 2.0 | 5.0 | 0.00 | 0.39 | 0.39 | 84 | 1010.1 |
| 20260507024004 | 57 | 341 | 3.0 | 8.0 | 0.00 | 0.39 | 0.39 | 84 | 1010.2 |
| 20260507023004 | 57 | 358 | 4.0 | 9.0 | 0.00 | 0.39 | 0.39 | 84 | 1009.9 |
| 20260507022004 | 58 | 350 | 7.0 | 18.0 | 0.00 | 0.39 | 0.39 | 84 | 1009.6 |
| 20260507021003 | 58 | 342 | 6.0 | 12.0 | 0.00 | 0.39 | 0.39 | 84 | 1009.6 |
| 20260507020004 | 59 | 342 | 7.0 | 13.0 | 0.00 | 0.39 | 0.39 | 85 | 1009.9 |
| 20260507015004 | 59 | 335 | 5.0 | 10.0 | 0.00 | 0.39 | 0.39 | 85 | 1009.9 |
| 20260507014004 | 59 | 304 | 4.0 | 12.0 | 0.00 | 0.39 | 0.39 | 84 | 1010.0 |
| 20260507013004 | 59 | 291 | 3.0 | 11.0 | 0.00 | 0.39 | 0.39 | 84 | 1009.9 |
| 20260507012004 | 59 | 295 | 3.0 | 10.0 | 0.00 | 0.39 | 0.39 | 85 | 1009.7 |
| 20260507011005 | 59 | 284 | 3.0 | 11.0 | 0.00 | 0.39 | 0.39 | 85 | 1009.5 |
| 20260507010005 | 60 | 276 | 3.0 | 12.0 | 0.00 | 0.39 | 0.39 | 85 | 1009.6 |
| 20260507005004 | 60 | 270 | 1.0 | 10.0 | 0.00 | 0.39 | 0.39 | 86 | 1009.3 |
| 20260507004004 | 60 | 245 | 2.0 | 6.0 | 0.00 | 0.39 | 0.39 | 86 | 1009.3 |
| 20260507003004 | 60 | 266 | 2.0 | 10.0 | 0.00 | 0.39 | 0.39 | 86 | 1009.0 |
| 20260507002003 | 60 | 271 | 4.0 | 10.0 | 0.00 | 0.39 | 0.39 | 86 | 1009.0 |
| 20260507001025 | 61 | 269 | 2.0 | 7.0 | 0.00 | 0.39 | 0.39 | 87 | 1008.6 |
| 20260507000024 | 61 | 276 | 2.0 | 6.0 | 0.00 | 0.39 | 0.39 | 87 | 1008.4 |
| 20260506235004 | 62 | 285 | 2.0 | 8.0 | 0.00 | 0.39 | 0.39 | 87 | 1008.0 |
| 20260506234004 | 62 | 285 | 3.0 | 9.0 | 0.06 | 0.39 | 0.39 | 87 | 1007.8 |
| 20260506233004 | 63 | 306 | 4.0 | 11.0 | 0.06 | 0.39 | 0.39 | 87 | 1007.7 |
| 20260506232003 | 64 | 309 | 7.0 | 17.0 | 0.06 | 0.39 | 0.39 | 87 | 1007.7 |
| 20260506231003 | 65 | 284 | 3.0 | 10.0 | 0.06 | 0.39 | 0.39 | 89 | 1007.5 |
| 20260506230004 | 65 | 252 | 2.0 | 9.0 | 0.06 | 0.39 | 0.39 | 89 | 1007.4 |
| 20260506225003 | 66 | 260 | 3.0 | 10.0 | 0.06 | 0.39 | 0.39 | 88 | 1007.5 |
| 20260506224003 | 66 | 228 | 5.0 | 12.0 | 0.00 | 0.33 | 0.33 | 86 | 1007.3 |
| 20260506223003 | 66 | 211 | 8.0 | 14.0 | 0.00 | 0.33 | 0.33 | 85 | 1007.1 |
| 20260506222025 | 66 | 205 | 7.0 | 16.0 | 0.00 | 0.33 | 0.33 | 85 | 1007.0 |
| 20260506221004 | 66 | 207 | 10.0 | 17.0 | 0.00 | 0.33 | 0.33 | 83 | 1006.9 |
| 20260506220003 | 67 | 204 | 9.0 | 16.0 | 0.00 | 0.33 | 0.33 | 83 | 1006.8 |
| 20260506215004 | 67 | 206 | 7.0 | 13.0 | 0.00 | 0.33 | 0.33 | 83 | 1006.9 |
| 20260506214003 | 67 | 211 | 7.0 | 14.0 | 0.00 | 0.33 | 0.33 | 82 | 1006.7 |
| 20260506213004 | 68 | 214 | 8.0 | 13.0 | 0.00 | 0.33 | 0.33 | 83 | 1006.5 |
| 20260506212004 | 67 | 212 | 6.0 | 13.0 | 0.00 | 0.33 | 0.33 | 83 | 1006.4 |
| 20260506211003 | 68 | 214 | 7.0 | 14.0 | 0.00 | 0.33 | 0.33 | 84 | 1006.5 |
| 20260506210004 | 68 | 210 | 8.0 | 15.0 | 0.00 | 0.33 | 0.33 | 83 | 1006.4 |
| 20260506205004 | 68 | 208 | 8.0 | 14.0 | 0.00 | 0.33 | 0.33 | 84 | 1006.4 |
| 20260506204025 | 68 | 206 | 8.0 | 14.0 | 0.00 | 0.33 | 0.33 | 83 | 1006.4 |
| 20260506203004 | 68 | 218 | 5.0 | 11.0 | 0.00 | 0.33 | 0.33 | 82 | 1006.3 |
| 20260506202003 | 68 | 224 | 7.0 | 17.0 | 0.00 | 0.33 | 0.33 | 83 | 1006.3 |
| 20260506201003 | 67 | 224 | 6.0 | 12.0 | 0.00 | 0.33 | 0.33 | 84 | 1006.4 |
| 20260506200004 | 66 | 225 | 8.0 | 15.0 | 0.00 | 0.33 | 0.33 | 85 | 1006.4 |
| 20260506195003 | 66 | 224 | 6.0 | 14.0 | 0.00 | 0.33 | 0.33 | 85 | 1006.5 |
| 20260506194004 | 66 | 210 | 6.0 | 13.0 | 0.00 | 0.33 | 0.33 | 85 | 1006.6 |
| 20260506193003 | 66 | 220 | 9.0 | 18.0 | 0.00 | 0.33 | 0.33 | 86 | 1006.6 |
| 20260506192004 | 66 | 210 | 7.0 | 14.0 | 0.00 | 0.33 | 0.33 | 86 | 1006.6 |
| 20260506191003 | 65 | 211 | 10.0 | 19.0 | 0.00 | 0.33 | 0.33 | 87 | 1006.6 |
| 20260506190005 | 64 | 219 | 5.0 | 14.0 | 0.01 | 0.33 | 0.33 | 88 | 1006.7 |
| 20260506185003 | 64 | 211 | 6.0 | 16.0 | 0.01 | 0.33 | 0.33 | 88 | 1006.9 |
| 20260506184003 | 64 | 206 | 9.0 | 15.0 | 0.01 | 0.33 | 0.33 | 88 | 1007.0 |
| 20260506183004 | 64 | 204 | 9.0 | 18.0 | 0.01 | 0.33 | 0.33 | 89 | 1007.0 |
| 20260506182003 | 64 | 202 | 10.0 | 16.0 | 0.01 | 0.33 | 0.33 | 88 | 1007.1 |
| 20260506181004 | 63 | 203 | 9.0 | 15.0 | 0.01 | 0.33 | 0.33 | 89 | 1007.1 |
| 20260506180024 | 63 | 207 | 8.0 | 15.0 | 0.00 | 0.32 | 0.32 | 90 | 1007.2 |
| 20260506175003 | 63 | 202 | 11.0 | 17.0 | 0.00 | 0.32 | 0.32 | 89 | 1007.2 |
| 20260506174003 | 63 | 203 | 12.0 | 18.0 | 0.00 | 0.32 | 0.32 | 89 | 1007.2 |
| 20260506173003 | 63 | 204 | 10.0 | 17.0 | 0.00 | 0.32 | 0.32 | 90 | 1007.2 |
| 20260506172003 | 63 | 203 | 8.0 | 16.0 | 0.00 | 0.32 | 0.32 | 90 | 1007.2 |
| 20260506171003 | 62 | 207 | 8.0 | 15.0 | 0.00 | 0.32 | 0.32 | 90 | 1007.2 |
| 20260506170004 | 62 | 201 | 10.0 | 17.0 | 0.00 | 0.32 | 0.32 | 90 | 1007.2 |
| 20260506165003 | 62 | 198 | 8.0 | 15.0 | 0.00 | 0.32 | 0.32 | 90 | 1007.2 |
| 20260506164024 | 62 | 200 | 11.0 | 17.0 | 0.00 | 0.32 | 0.32 | 90 | 1007.2 |
| 20260506163003 | 62 | 198 | 8.0 | 15.0 | 0.00 | 0.32 | 0.32 | 91 | 1007.3 |
| 20260506162003 | 62 | 199 | 8.0 | 16.0 | 0.01 | 0.32 | 0.32 | 91 | 1007.3 |
| 20260506161003 | 62 | 197 | 7.0 | 15.0 | 0.02 | 0.32 | 0.32 | 91 | 1007.4 |
| 20260506160003 | 62 | 199 | 8.0 | 13.0 | 0.05 | 0.32 | 0.32 | 91 | 1007.5 |
| 20260506155003 | 62 | 196 | 9.0 | 14.0 | 0.07 | 0.32 | 0.32 | 91 | 1007.4 |
| 20260506154003 | 62 | 195 | 7.0 | 11.0 | 0.11 | 0.32 | 0.32 | 92 | 1007.4 |
| 20260506153004 | 62 | 181 | 8.0 | 13.0 | 0.13 | 0.32 | 0.32 | 92 | 1007.2 |
| 20260506152004 | 61 | 176 | 8.0 | 14.0 | 0.13 | 0.31 | 0.31 | 91 | 1007.1 |
| 20260506151004 | 61 | 176 | 6.0 | 11.0 | 0.13 | 0.30 | 0.30 | 91 | 1007.6 |
| 20260506150024 | 61 | 186 | 7.0 | 11.0 | 0.11 | 0.27 | 0.27 | 91 | 1007.7 |
| 20260506145003 | 62 | 196 | 8.0 | 14.0 | 0.12 | 0.25 | 0.25 | 90 | 1008.1 |
| 20260506144003 | 62 | 205 | 7.0 | 13.0 | 0.12 | 0.21 | 0.21 | 90 | 1008.5 |
| 20260506143003 | 62 | 203 | 7.0 | 15.0 | 0.11 | 0.19 | 0.19 | 89 | 1008.4 |
| 20260506142003 | 62 | 195 | 5.0 | 8.0 | 0.11 | 0.18 | 0.18 | 89 | 1008.0 |
| 20260506141003 | 62 | 194 | 5.0 | 8.0 | 0.10 | 0.17 | 0.17 | 89 | 1007.8 |
| 20260506140004 | 62 | 186 | 2.0 | 4.0 | 0.10 | 0.16 | 0.16 | 89 | 1007.7 |
| 20260506135003 | 62 | 197 | 3.0 | 7.0 | 0.08 | 0.13 | 0.13 | 88 | 1007.7 |
| 20260506134024 | 62 | 196 | 5.0 | 8.0 | 0.04 | 0.09 | 0.09 | 87 | 1007.9 |
| 20260506133003 | 63 | 185 | 5.0 | 11.0 | 0.04 | 0.08 | 0.08 | 86 | 1008.0 |
| 20260506132003 | 63 | 177 | 5.0 | 10.0 | 0.04 | 0.07 | 0.07 | 85 | 1007.9 |
| 20260506131024 | 63 | 184 | 7.0 | 12.0 | 0.04 | 0.07 | 0.07 | 84 | 1007.9 |
| 20260506130004 | 63 | 184 | 6.0 | 10.0 | 0.04 | 0.06 | 0.06 | 85 | 1007.9 |
| 20260506125003 | 63 | 185 | 5.0 | 8.0 | 0.03 | 0.05 | 0.05 | 84 | 1008.0 |
| 20260506124003 | 63 | 192 | 5.0 | 10.0 | 0.04 | 0.05 | 0.05 | 83 | 1008.1 |
| 20260506123003 | 63 | 206 | 3.0 | 7.0 | 0.03 | 0.04 | 0.04 | 83 | 1008.2 |
| 20260506122003 | 63 | 227 | 2.0 | 5.0 | 0.03 | 0.03 | 0.03 | 83 | 1008.4 |
| 20260506121003 | 64 | 228 | 4.0 | 9.0 | 0.03 | 0.03 | 0.03 | 81 | 1008.5 |
| 20260506120004 | 64 | 214 | 3.0 | 7.0 | 0.02 | 0.02 | 0.02 | 81 | 1008.4 |
| 20260506115003 | 64 | 200 | 3.0 | 7.0 | 0.02 | 0.02 | 0.02 | 79 | 1008.0 |
| 20260506114003 | 64 | 199 | 3.0 | 7.0 | 0.01 | 0.01 | 0.01 | 78 | 1007.9 |
| 20260506113003 | 65 | 197 | 7.0 | 10.0 | 0.01 | 0.01 | 0.01 | 74 | 1007.8 |
| 20260506112003 | 66 | 195 | 6.0 | 11.0 | 0.00 | 0.00 | 0.00 | 72 | 1007.7 |
| 20260506111003 | 66 | 198 | 7.0 | 13.0 | 0.00 | 0.00 | 0.00 | 70 | 1007.7 |
| 20260506110003 | 67 | 199 | 7.0 | 15.0 | 0.00 | 0.00 | 0.00 | 68 | 1007.5 |
| 20260506105003 | 67 | 196 | 6.0 | 18.0 | 0.00 | 0.00 | 0.00 | 69 | 1007.4 |
| 20260506104004 | 67 | 194 | 10.0 | 17.0 | 0.00 | 0.00 | 0.00 | 65 | 1007.3 |
| 20260506103003 | 67 | 197 | 9.0 | 20.0 | 0.00 | 0.00 | 0.00 | 64 | 1007.2 |
| 20260506102024 | 67 | 195 | 6.0 | 13.0 | 0.00 | 0.00 | 0.00 | 64 | 1007.0 |
| 20260506101025 | 67 | 189 | 7.0 | 12.0 | 0.00 | 0.00 | 0.00 | 63 | 1006.9 |
| 20260506100003 | 68 | 192 | 8.0 | 13.0 | 0.00 | 0.00 | 0.00 | 64 | 1006.8 |
| 20260506095003 | 68 | 198 | 7.0 | 13.0 | 0.00 | 0.00 | 0.00 | 64 | 1006.9 |
| 20260506094003 | 68 | 196 | 6.0 | 10.0 | 0.00 | 0.00 | 0.00 | 63 | 1006.9 |
| 20260506093025 | 68 | 193 | 7.0 | 12.0 | 0.00 | 0.00 | 0.00 | 61 | 1006.9 |
| 20260506092004 | 68 | 199 | 6.0 | 15.0 | 0.00 | 0.00 | 0.00 | 61 | 1007.1 |
| 20260506091003 | 68 | 206 | 8.0 | 17.0 | 0.00 | 0.00 | 0.00 | 60 | 1007.2 |
| 20260506090004 | 69 | 211 | 6.0 | 10.0 | 0.00 | 0.00 | 0.00 | 60 | 1007.3 |
| 20260506085003 | 69 | 212 | 6.0 | 15.0 | 0.00 | 0.00 | 0.00 | 59 | 1007.2 |
| 20260506084003 | 69 | 199 | 7.0 | 14.0 | 0.00 | 0.00 | 0.00 | 59 | 1007.1 |
| 20260506083024 | 69 | 203 | 6.0 | 11.0 | 0.00 | 0.00 | 0.00 | 59 | 1007.1 |
| 20260506082003 | 69 | 201 | 8.0 | 14.0 | 0.00 | 0.00 | 0.00 | 58 | 1007.2 |
| 20260506081003 | 69 | 195 | 9.0 | 15.0 | 0.00 | 0.00 | 0.00 | 57 | 1007.2 |
| 20260506073004 | 70 | 201 | 9.0 | 18.0 | 0.00 | 0.00 | 0.00 | 55 | 1007.2 |
| 20260506072024 | 70 | 202 | 8.0 | 15.0 | 0.00 | 0.00 | 0.00 | 56 | 1007.3 |
| 20260506071003 | 70 | 203 | 9.0 | 14.0 | 0.00 | 0.00 | 0.00 | 55 | 1007.2 |